Regional Weather Roundup
Issued by NWS Mt. Holly, NJ

Home | Current Version | Previous Version | Text Only | Print | Product List | Glossary On
Versions: 1 2 3 4 5 6 7 8 9 10 11 12 13 14 15 16 17 18 19 20 21 22 23 24 25 26 27 28 29 30 31 32 33 34 35 36 37 38 39 40 41 42 43 44 45 46 47 48 49 50
000
ASUS41 KPHI 231512
RWRPHI

REGIONAL WEATHER ROUNDUP
NATIONAL WEATHER SERVICE MOUNT HOLLY NJ
1100 AM EDT MON OCT 23 2017

NOTE:  "FAIR" INDICATES FEW OR NO CLOUDS BELOW 12,000 FEET WITH NO
SIGNIFICANT WEATHER AND/OR OBSTRUCTIONS TO VISIBILITY.

 * = STATION DOES NOT REPORT PRECIPITATION (E.G. RAIN, SNOW, ETC.)
        OR FOG.

NJZ015>026-231600-
SOUTHERN NEW JERSEY

CITY           SKY/WX    TMP DP  RH WIND       PRES   REMARKS
POMONA         CLOUDY    73  65  75 SE13G21   30.25F
WILDWOOD*      CLOUDY    70  67  90 SE10      30.24F
MILLVILLE      CLOUDY    73  68  84 SE9       30.24F
WRIGHTSTOWN    PTSUNNY   72  64  73 S9        30.22F
MOUNT HOLLY    PTSUNNY   72  64  76 VRB7      30.24F
TRENTON        MOSUNNY   70  63  78 S10       30.25F

$$
NJZ001>014-231600-
NORTHERN NEW JERSEY

CITY           SKY/WX    TMP DP  RH WIND       PRES   REMARKS
SUSSEX         CLOUDY    65  59  81 CALM      30.26F
ANDOVER*         N/A     66  61  84 SE10      30.25F
MORRISTOWN     PTSUNNY   68  61  77 CALM      30.26F
NEWARK         PTSUNNY   72  62  71 SE9       30.25F
TETERBORO      PTSUNNY   71  62  73 SE8       30.25F
CALDWELL       PTSUNNY   70  64  81 S7        30.26F
SOMERVILLE     CLOUDY    68  63  84 VRB3      30.24F
ALLAIRE*       SUNNY     71  62  73 S10       30.27F
TOMS RIVER*      N/A     72  63  73 SE12      30.26F

$$
PAZ043-044-047-054-055-060>062-066>071-231600-
EASTERN PENNSYLVANIA

CITY           SKY/WX    TMP DP  RH WIND       PRES   REMARKS
PHILADELPHIA   CLOUDY    71  63  75 SE9       30.23F
NORTH PHILA    CLOUDY    71  63  75 CALM      30.26F
BLUE BELL*     CLOUDY    64  61  88 SE6       30.25F
DOYLESTOWN     CLOUDY    65  63  93 VRB5      30.24F
QUAKERTOWN*    CLOUDY    64  63  94 SE7       30.25F
PERKASIE*      CLOUDY    63  63 100 SE7       30.26F
POTTSTOWN      CLOUDY    65  63  93 SE5       30.25F FOG
LANCASTER      CLOUDY    65  64  97 SE8       30.21F
COATESVILLE      N/A     66  66 100 VRB6      30.24F
READING        CLOUDY    65  63  93 SE9       30.21F FOG
ALLENTOWN      CLOUDY    66  59  78 S7        30.24F
MOUNT POCONO   FOG       57  57 100 S8        30.26F VSB<1/4
HAZLETON       CLOUDY    61  59  94 SE5       30.26F
LEHIGHTON      CLOUDY    61  61 100 CALM      30.25F FOG
WILKES BARRE   CLOUDY    65  59  81 S7        30.22F

$$
DEZALL-MDZ008-012-015-019-020-231600-
DELAWARE AND EASTERN MARYLAND

CITY           SKY/WX    TMP DP  RH WIND       PRES   REMARKS
WILMINGTON     CLOUDY    72  65  78 SE12      30.23F
DOVER          PTSUNNY   70  66  88 SE10      30.22F
GEORGETOWN     CLOUDY    74  66  76 S10       30.23F
EASTON         PTSUNNY   72  66  83 SE9       30.24F
ABERDEEN       CLOUDY    67  64  88 SE5       30.22F
PATUXENT       CLOUDY    70  67  90 SE10      30.19F
OCEAN CITY     CLOUDY    71  67  87 S8        30.23F
WALLOPS ISLAND CLOUDY    74  68  81 SE12      30.22F
CAMBRIDGE      MOSUNNY   72  66  83 VRB7      30.21F
SALISBURY      CLOUDY    74  68  81 SE12      30.21F

$$
PAZ001-021-NYZ056-072-MDZ011-DCZ001-231600-
OTHER NEARBY LOCATIONS

CITY           SKY/WX    TMP DP  RH WIND       PRES   REMARKS
HARRISBURG     CLOUDY    64  61  90 SE7       30.20F
STATE COLLEGE  CLOUDY    63  57  82 S10       30.15F
WILLIAMSPORT   CLOUDY    64  58  80 E12G18    30.17F
BINGHAMTON     CLOUDY    59  54  83 S14G25    30.19F
NEW YORK CITY  SUNNY     70  62  76 VRB3      30.29F
BALTIMORE      CLOUDY    68  65  90 SE8       30.19F
WASHINGTON DC  CLOUDY    68  65  90 SE3       30.19F

$$



USA.gov is the U.S. government's official web portal to all federal, state and local government web resources and services.